sat.trackr.live / text

‹ back to catalog

STARLINK-37287

NORAD 68684 · 2026-077Y

PAYLOAD ACTIVE UNKNOWN

§ Identity

Operator
Country
US
Launch date
2026-04-11
Launch site
AFWTR
Launch vehicle
Mass (kg)
RCS (m²)

Purposes: comms

External: N2YO · Heavens-Above · Gunter

§ Orbital elements

Epoch: 2026-05-25T02:30:16.799040Z

Period
93.91 min
Inclination
97.2870°
Eccentricity
0.0001607
Mean motion
15.33440412 rev/d
Perigee alt
464.5 km
Apogee alt
466.7 km
Semi-major
6,843.7 km
B*
1.0917e-4
RAAN
16.7539°
Arg perigee
87.0073°
Mean anomaly
273.1353°
Rev number
687

§ Raw data

STARLINK-372871 68684U 26077Y   26145.10436110  .00003450  00000+0  10917-3 0  99902 68684  97.2870  16.7539 0001607  87.0073 273.1353 15.33440412  6879

JSON: /api/v1/satellites/68684 · /tle

For live sub-satellite position, see the globe view (requires WebGL).

§ Visibility from observer

Set your observer location to see the next 7 days of passes ≥ 10°. The values pass through the URL so the page stays shareable.

No JS? Fill the form by hand. The geolocation button needs JavaScript.